Year,Month,Day,Hour,Minute,Value (Times are PST for temperature in C)
2012,07,05,00,00,12.00
2012,07,05,00,01,12.00
2012,07,05,00,02,12.00
2012,07,05,00,03,12.00
2012,07,05,00,04,12.00
2012,07,05,00,05,12.00
2012,07,05,00,06,12.00
2012,07,05,00,07,12.00
2012,07,05,00,08,12.00
2012,07,05,00,09,12.00
2012,07,05,00,10,12.00
2012,07,05,00,11,12.00
2012,07,05,00,12,12.00
2012,07,05,00,13,12.00
2012,07,05,00,14,12.00
2012,07,05,00,15,12.00
2012,07,05,00,16,12.00
2012,07,05,00,17,12.00
2012,07,05,00,18,12.00
2012,07,05,00,19,12.00
2012,07,05,00,20,12.00
2012,07,05,00,21,12.00
2012,07,05,00,22,11.90
2012,07,05,00,23,11.90
2012,07,05,00,24,11.90
2012,07,05,00,25,11.90
2012,07,05,00,26,11.90
2012,07,05,00,27,11.90
2012,07,05,00,28,11.90
2012,07,05,00,29,11.90
2012,07,05,00,30,11.90
2012,07,05,00,31,11.90
2012,07,05,00,32,11.80
2012,07,05,00,33,11.80
2012,07,05,00,34,11.80
2012,07,05,00,35,11.80
2012,07,05,00,36,11.80
2012,07,05,00,37,11.80
2012,07,05,00,38,11.80
2012,07,05,00,39,11.70
2012,07,05,00,40,11.70
2012,07,05,00,41,11.70
2012,07,05,00,42,11.70
2012,07,05,00,43,11.70
2012,07,05,00,44,11.70
2012,07,05,00,45,11.70
2012,07,05,00,46,11.60
2012,07,05,00,47,11.60
2012,07,05,00,48,11.60
2012,07,05,00,49,11.60
2012,07,05,00,50,11.60
2012,07,05,00,51,11.60
2012,07,05,00,52,11.50
2012,07,05,00,53,11.50
2012,07,05,00,54,11.50
2012,07,05,00,55,11.50
2012,07,05,00,56,11.50
2012,07,05,00,57,11.50
2012,07,05,00,58,11.40
2012,07,05,00,59,11.40
2012,07,05,01,00,11.40
2012,07,05,01,01,11.40
2012,07,05,01,02,11.40
2012,07,05,01,03,11.30
2012,07,05,01,04,11.30
2012,07,05,01,05,11.30
2012,07,05,01,06,11.30
2012,07,05,01,07,11.30
2012,07,05,01,08,11.30
2012,07,05,01,09,11.20
2012,07,05,01,10,11.20
2012,07,05,01,11,11.20
2012,07,05,01,12,11.20
2012,07,05,01,13,11.20
2012,07,05,01,14,11.10
2012,07,05,01,15,11.10
2012,07,05,01,16,11.10
2012,07,05,01,17,11.10
2012,07,05,01,18,11.10
2012,07,05,01,19,11.00
2012,07,05,01,20,11.00
2012,07,05,01,21,10.90
2012,07,05,01,22,10.90
2012,07,05,01,23,10.90
2012,07,05,01,24,10.90
2012,07,05,01,25,10.80
2012,07,05,01,26,10.80
2012,07,05,01,27,10.80
2012,07,05,01,28,10.80
2012,07,05,01,29,10.80
2012,07,05,01,30,10.70
2012,07,05,01,31,10.70
2012,07,05,01,32,10.70
2012,07,05,01,33,10.70
2012,07,05,01,34,10.70
2012,07,05,01,35,10.60
2012,07,05,01,36,10.60
2012,07,05,01,37,10.60
2012,07,05,01,38,10.60
2012,07,05,01,39,10.60
2012,07,05,01,40,10.50
2012,07,05,01,41,10.50
2012,07,05,01,42,10.50
2012,07,05,01,43,10.40
2012,07,05,01,44,10.40
2012,07,05,01,45,10.40
2012,07,05,01,46,10.40
2012,07,05,01,47,10.40
2012,07,05,01,48,10.30
2012,07,05,01,49,10.30
2012,07,05,01,50,10.30
2012,07,05,01,51,10.30
2012,07,05,01,52,10.30
2012,07,05,01,53,10.30
2012,07,05,01,54,10.20
2012,07,05,01,55,10.20
2012,07,05,01,56,10.20
2012,07,05,01,57,10.20
2012,07,05,01,58,10.20
2012,07,05,01,59,10.20
2012,07,05,02,00,10.20
2012,07,05,02,01,10.20
2012,07,05,02,02,10.20
2012,07,05,02,03,10.20
2012,07,05,02,04,10.10
2012,07,05,02,05,10.10
2012,07,05,02,06,10.10
2012,07,05,02,07,10.10
2012,07,05,02,08,10.10
2012,07,05,02,09,10.10
2012,07,05,02,10,10.10
2012,07,05,02,11,10.10
2012,07,05,02,12,10.10
2012,07,05,02,13,10.10
2012,07,05,02,14,10.10
2012,07,05,02,15,10.10
2012,07,05,02,16,10.10
2012,07,05,02,17,10.10
2012,07,05,02,18,10.10
2012,07,05,02,19,10.10
2012,07,05,02,20,10.10
2012,07,05,02,21,10.10
2012,07,05,02,22,10.10
2012,07,05,02,23,10.10
2012,07,05,02,24,10.10
2012,07,05,02,25,10.00
2012,07,05,02,26,10.00
2012,07,05,02,27,10.00
2012,07,05,02,28,10.00
2012,07,05,02,29,10.00
2012,07,05,02,30,10.00
2012,07,05,02,31,10.00
2012,07,05,02,32,10.00
2012,07,05,02,33,10.00
2012,07,05,02,34,10.00
2012,07,05,02,35,10.00
2012,07,05,02,36,9.90
2012,07,05,02,37,9.90
2012,07,05,02,38,9.90
2012,07,05,02,39,9.90
2012,07,05,02,40,9.90
2012,07,05,02,41,9.90
2012,07,05,02,42,9.90
2012,07,05,02,43,9.90
2012,07,05,02,44,9.90
2012,07,05,02,45,9.90
2012,07,05,02,46,9.90
2012,07,05,02,47,9.90
2012,07,05,02,48,9.90
2012,07,05,02,49,9.90
2012,07,05,02,50,9.80
2012,07,05,02,51,9.80
2012,07,05,02,52,9.80
2012,07,05,02,53,9.80
2012,07,05,02,54,9.80
2012,07,05,02,55,9.80
2012,07,05,02,56,9.80
2012,07,05,02,57,9.80
2012,07,05,02,58,9.80
2012,07,05,02,59,9.80
2012,07,05,03,00,9.80
2012,07,05,03,01,9.80
2012,07,05,03,02,9.80
2012,07,05,03,03,9.70
2012,07,05,03,04,9.70
2012,07,05,03,05,9.70
2012,07,05,03,06,9.70
2012,07,05,03,07,9.70
2012,07,05,03,08,9.70
2012,07,05,03,09,9.70
2012,07,05,03,10,9.70
2012,07,05,03,11,9.70
2012,07,05,03,12,9.70
2012,07,05,03,13,9.70
2012,07,05,03,14,9.70
2012,07,05,03,15,9.70
2012,07,05,03,16,9.60
2012,07,05,03,17,9.60
2012,07,05,03,18,9.60
2012,07,05,03,19,9.60
2012,07,05,03,20,9.60
2012,07,05,03,21,9.60
2012,07,05,03,22,9.60
2012,07,05,03,23,9.60
2012,07,05,03,24,9.60
2012,07,05,03,25,9.60
2012,07,05,03,26,9.60
2012,07,05,03,27,9.60
2012,07,05,03,28,9.60
2012,07,05,03,29,9.50
2012,07,05,03,30,9.60
2012,07,05,03,31,9.50
2012,07,05,03,32,9.50
2012,07,05,03,33,9.50
2012,07,05,03,34,9.50
2012,07,05,03,35,9.50
2012,07,05,03,36,9.40
2012,07,05,03,37,9.40
2012,07,05,03,38,9.40
2012,07,05,03,39,9.40
2012,07,05,03,40,9.30
2012,07,05,03,41,9.30
2012,07,05,03,42,9.30
2012,07,05,03,43,9.30
2012,07,05,03,44,9.30
2012,07,05,03,45,9.30
2012,07,05,03,46,9.30
2012,07,05,03,47,9.30
2012,07,05,03,48,9.30
2012,07,05,03,49,9.30
2012,07,05,03,50,9.20
2012,07,05,03,51,9.20
2012,07,05,03,52,9.20
2012,07,05,03,53,9.20
2012,07,05,03,54,9.20
2012,07,05,03,55,9.20
2012,07,05,03,56,9.20
2012,07,05,03,57,9.20
2012,07,05,03,58,9.20
2012,07,05,03,59,9.20
2012,07,05,04,00,9.20
2012,07,05,04,01,9.20
2012,07,05,04,02,9.20
2012,07,05,04,03,9.20
2012,07,05,04,04,9.20
2012,07,05,04,05,9.10
2012,07,05,04,06,9.10
2012,07,05,04,07,9.10
2012,07,05,04,08,9.10
2012,07,05,04,09,9.10
2012,07,05,04,10,9.10
2012,07,05,04,11,9.10
2012,07,05,04,12,9.10
2012,07,05,04,13,9.10
2012,07,05,04,14,9.10
2012,07,05,04,15,9.10
2012,07,05,04,16,9.00
2012,07,05,04,17,9.00
2012,07,05,04,18,9.00
2012,07,05,04,19,9.00
2012,07,05,04,20,8.90
2012,07,05,04,21,8.90
2012,07,05,04,22,8.90
2012,07,05,04,23,8.90
2012,07,05,04,24,8.90
2012,07,05,04,25,8.90
2012,07,05,04,26,8.80
2012,07,05,04,27,8.80
2012,07,05,04,28,8.80
2012,07,05,04,29,8.80
2012,07,05,04,30,8.80
2012,07,05,04,31,8.80
2012,07,05,04,32,8.70
2012,07,05,04,33,8.70
2012,07,05,04,34,8.70
2012,07,05,04,35,8.70
2012,07,05,04,36,8.70
2012,07,05,04,37,8.70
2012,07,05,04,38,8.60
2012,07,05,04,39,8.60
2012,07,05,04,40,8.60
2012,07,05,04,41,8.60
2012,07,05,04,42,8.60
2012,07,05,04,43,8.60
2012,07,05,04,44,8.60
2012,07,05,04,45,8.50
2012,07,05,04,46,8.50
2012,07,05,04,47,8.50
2012,07,05,04,48,8.50
2012,07,05,04,49,8.50
2012,07,05,04,50,8.50
2012,07,05,04,51,8.40
2012,07,05,04,52,8.40
2012,07,05,04,53,8.40
2012,07,05,04,54,8.40
2012,07,05,04,55,8.40
2012,07,05,04,56,8.40
2012,07,05,04,57,8.40
2012,07,05,04,58,8.30
2012,07,05,04,59,8.30
2012,07,05,05,00,8.30
2012,07,05,05,01,8.30
2012,07,05,05,02,8.30
2012,07,05,05,03,8.30
2012,07,05,05,04,8.30
2012,07,05,05,05,8.30
2012,07,05,05,06,8.20
2012,07,05,05,07,8.20
2012,07,05,05,08,8.20
2012,07,05,05,09,8.20
2012,07,05,05,10,8.20
2012,07,05,05,11,8.20
2012,07,05,05,12,8.10
2012,07,05,05,13,8.10
2012,07,05,05,14,8.10
2012,07,05,05,15,8.10
2012,07,05,05,16,8.00
2012,07,05,05,17,8.00
2012,07,05,05,18,8.00
2012,07,05,05,19,8.00
2012,07,05,05,20,8.00
2012,07,05,05,21,8.00
2012,07,05,05,22,8.10
2012,07,05,05,23,8.10
2012,07,05,05,24,8.10
2012,07,05,05,25,8.10
2012,07,05,05,26,8.10
2012,07,05,05,27,8.10
2012,07,05,05,28,8.10
2012,07,05,05,29,8.20
2012,07,05,05,30,8.20
2012,07,05,05,31,8.20
2012,07,05,05,32,8.20
2012,07,05,05,33,8.20
2012,07,05,05,34,8.20
2012,07,05,05,35,8.20
2012,07,05,05,36,8.30
2012,07,05,05,37,8.30
2012,07,05,05,38,8.30
2012,07,05,05,39,8.30
2012,07,05,05,40,8.30
2012,07,05,05,41,8.30
2012,07,05,05,42,8.30
2012,07,05,05,43,8.30
2012,07,05,05,44,8.30
2012,07,05,05,45,8.30
2012,07,05,05,46,8.30
2012,07,05,05,47,8.30
2012,07,05,05,48,8.30
2012,07,05,05,49,8.30
2012,07,05,05,50,8.40
2012,07,05,05,51,8.40
2012,07,05,05,52,8.40
2012,07,05,05,53,8.40
2012,07,05,05,54,8.40
2012,07,05,05,55,8.40
2012,07,05,05,56,8.40
2012,07,05,05,57,8.40
2012,07,05,05,58,8.40
2012,07,05,05,59,8.40
2012,07,05,06,00,8.40
2012,07,05,06,01,8.40
2012,07,05,06,02,8.40
2012,07,05,06,03,8.40
2012,07,05,06,04,8.40
2012,07,05,06,05,8.40
2012,07,05,06,06,8.40
2012,07,05,06,07,8.40
2012,07,05,06,08,8.40
2012,07,05,06,09,8.40
2012,07,05,06,10,8.40
2012,07,05,06,11,8.40
2012,07,05,06,12,8.40
2012,07,05,06,13,8.40
2012,07,05,06,14,8.40
2012,07,05,06,15,8.50
2012,07,05,06,16,8.50
2012,07,05,06,17,8.50
2012,07,05,06,18,8.50
2012,07,05,06,19,8.50
2012,07,05,06,20,8.50
2012,07,05,06,21,8.60
2012,07,05,06,22,8.60
2012,07,05,06,23,8.60
2012,07,05,06,24,8.70
2012,07,05,06,25,8.70
2012,07,05,06,26,8.80
2012,07,05,06,27,8.80
2012,07,05,06,28,8.80
2012,07,05,06,29,8.90
2012,07,05,06,30,9.00
2012,07,05,06,31,9.10
2012,07,05,06,32,9.10
2012,07,05,06,33,9.20
2012,07,05,06,34,9.20
2012,07,05,06,35,9.30
2012,07,05,06,36,9.40
2012,07,05,06,37,9.40
2012,07,05,06,38,9.50
2012,07,05,06,39,9.60
2012,07,05,06,40,9.70
2012,07,05,06,41,9.70
2012,07,05,06,42,9.80
2012,07,05,06,43,9.80
2012,07,05,06,44,9.90
2012,07,05,06,45,10.00
2012,07,05,06,46,10.00
2012,07,05,06,47,10.10
2012,07,05,06,48,10.20
2012,07,05,06,49,10.30
2012,07,05,06,50,10.30
2012,07,05,06,51,10.40
2012,07,05,06,52,10.50
2012,07,05,06,53,10.60
2012,07,05,06,54,10.70
2012,07,05,06,55,10.80
2012,07,05,06,56,10.90
2012,07,05,06,57,11.00
2012,07,05,06,58,11.10
2012,07,05,06,59,11.20
2012,07,05,07,00,11.30
2012,07,05,07,01,11.40
2012,07,05,07,02,11.50
2012,07,05,07,03,11.60
2012,07,05,07,04,11.70
2012,07,05,07,05,11.80
2012,07,05,07,06,11.90
2012,07,05,07,07,12.00
2012,07,05,07,08,12.10
2012,07,05,07,09,12.10
2012,07,05,07,10,12.20
2012,07,05,07,11,12.20
2012,07,05,07,12,12.20
2012,07,05,07,13,12.30
2012,07,05,07,14,12.30
2012,07,05,07,15,12.30
2012,07,05,07,16,12.40
2012,07,05,07,17,12.40
2012,07,05,07,18,12.50
2012,07,05,07,19,12.50
2012,07,05,07,20,12.60
2012,07,05,07,21,12.60
2012,07,05,07,22,12.60
2012,07,05,07,23,12.70
2012,07,05,07,24,12.70
2012,07,05,07,25,12.80
2012,07,05,07,26,12.80
2012,07,05,07,27,12.90
2012,07,05,07,28,12.90
2012,07,05,07,29,13.00
2012,07,05,07,30,13.10
2012,07,05,07,31,13.10
2012,07,05,07,32,13.20
2012,07,05,07,33,13.30
2012,07,05,07,34,13.30
2012,07,05,07,35,13.40
2012,07,05,07,36,13.40
2012,07,05,07,37,13.50
2012,07,05,07,38,13.50
2012,07,05,07,39,13.60
2012,07,05,07,40,13.70
2012,07,05,07,41,13.70
2012,07,05,07,42,13.80
2012,07,05,07,43,13.80
2012,07,05,07,44,13.90
2012,07,05,07,45,13.90
2012,07,05,07,46,13.90
2012,07,05,07,47,14.00
2012,07,05,07,48,14.00
2012,07,05,07,49,14.00
2012,07,05,07,50,14.00
2012,07,05,07,51,14.10
2012,07,05,07,52,14.10
2012,07,05,07,53,14.10
2012,07,05,07,54,14.10
2012,07,05,07,55,14.10
2012,07,05,07,56,14.10
2012,07,05,07,57,14.20
2012,07,05,07,58,14.20
2012,07,05,07,59,14.20
2012,07,05,08,00,14.20
2012,07,05,08,01,14.20
2012,07,05,08,02,14.20
2012,07,05,08,03,14.30
2012,07,05,08,04,14.30
2012,07,05,08,05,14.30
2012,07,05,08,06,14.30
2012,07,05,08,07,14.30
2012,07,05,08,08,14.30
2012,07,05,08,09,14.40
2012,07,05,08,10,14.40
2012,07,05,08,11,14.40
2012,07,05,08,12,14.40
2012,07,05,08,13,14.50
2012,07,05,08,14,14.50
2012,07,05,08,15,14.60
2012,07,05,08,16,14.60
2012,07,05,08,17,14.60
2012,07,05,08,18,14.70
2012,07,05,08,19,14.70
2012,07,05,08,20,14.70
2012,07,05,08,21,14.80
2012,07,05,08,22,14.80
2012,07,05,08,23,14.80
2012,07,05,08,24,14.80
2012,07,05,08,25,14.80
2012,07,05,08,26,14.80
2012,07,05,08,27,14.80
2012,07,05,08,28,14.80
2012,07,05,08,29,14.80
2012,07,05,08,30,14.80
2012,07,05,08,31,14.80
2012,07,05,08,32,14.80
2012,07,05,08,33,14.80
2012,07,05,08,34,14.80
2012,07,05,08,35,14.80
2012,07,05,08,36,14.80
2012,07,05,08,37,14.80
2012,07,05,08,38,14.80
2012,07,05,08,39,14.80
2012,07,05,08,40,14.80
2012,07,05,08,41,14.80
2012,07,05,08,42,14.90
2012,07,05,08,43,14.90
2012,07,05,08,44,14.90
2012,07,05,08,45,14.90
2012,07,05,08,46,14.90
2012,07,05,08,47,14.90
2012,07,05,08,48,14.90
2012,07,05,08,49,14.90
2012,07,05,08,50,14.90
2012,07,05,08,51,14.90
2012,07,05,08,52,14.90
2012,07,05,08,53,14.90
2012,07,05,08,54,14.80
2012,07,05,08,55,14.80
2012,07,05,08,56,14.80
2012,07,05,08,57,14.80
2012,07,05,08,58,14.80
2012,07,05,08,59,14.80
2012,07,05,09,00,14.80
2012,07,05,09,01,14.80
2012,07,05,09,02,14.80
2012,07,05,09,03,14.80
2012,07,05,09,04,14.80
2012,07,05,09,05,14.70
2012,07,05,09,06,14.70
2012,07,05,09,07,14.60
2012,07,05,09,08,14.60
2012,07,05,09,09,14.50
2012,07,05,09,10,14.50
2012,07,05,09,11,14.50
2012,07,05,09,12,14.40
2012,07,05,09,13,14.40
2012,07,05,09,14,14.30
2012,07,05,09,15,14.30
2012,07,05,09,16,14.20
2012,07,05,09,17,14.20
2012,07,05,09,18,14.20
2012,07,05,09,19,14.10
2012,07,05,09,20,14.10
2012,07,05,09,21,14.00
2012,07,05,09,22,14.00
2012,07,05,09,23,13.90
2012,07,05,09,24,13.80
2012,07,05,09,25,13.80
2012,07,05,09,26,13.80
2012,07,05,09,27,13.80
2012,07,05,09,28,13.80
2012,07,05,09,29,13.90
2012,07,05,09,30,13.90
2012,07,05,09,31,13.90
2012,07,05,09,32,13.90
2012,07,05,09,33,14.00
2012,07,05,09,34,14.00
2012,07,05,09,35,14.00
2012,07,05,09,36,14.10
2012,07,05,09,37,14.10
2012,07,05,09,38,14.10
2012,07,05,09,39,14.10
2012,07,05,09,40,14.10
2012,07,05,09,41,14.10
2012,07,05,09,42,14.20
2012,07,05,09,43,14.20
2012,07,05,09,44,14.20
2012,07,05,09,45,14.20
2012,07,05,09,46,14.20
2012,07,05,09,47,14.20
2012,07,05,09,48,14.20
2012,07,05,09,49,14.10
2012,07,05,09,50,14.10
2012,07,05,09,51,14.10
2012,07,05,09,52,14.10
2012,07,05,09,53,14.10
2012,07,05,09,54,14.10
2012,07,05,09,55,14.10
2012,07,05,09,56,14.10
2012,07,05,09,57,14.10
2012,07,05,09,58,14.20
2012,07,05,09,59,14.20
2012,07,05,10,00,14.20
2012,07,05,10,01,14.20
2012,07,05,10,02,14.30
2012,07,05,10,03,14.30
2012,07,05,10,04,14.30
2012,07,05,10,05,14.30
2012,07,05,10,06,14.30
2012,07,05,10,07,14.30
2012,07,05,10,08,14.30
2012,07,05,10,09,14.40
2012,07,05,10,10,14.40
2012,07,05,10,11,14.50
2012,07,05,10,12,14.50
2012,07,05,10,13,14.60
2012,07,05,10,14,14.60
2012,07,05,10,15,14.60
2012,07,05,10,16,14.60
2012,07,05,10,17,14.70
2012,07,05,10,18,14.70
2012,07,05,10,19,14.70
2012,07,05,10,20,14.60
2012,07,05,10,21,14.60
2012,07,05,10,22,14.60
2012,07,05,10,23,14.50
2012,07,05,10,24,14.50
2012,07,05,10,25,14.40
2012,07,05,10,26,14.40
2012,07,05,10,27,14.30
2012,07,05,10,28,14.30
2012,07,05,10,29,14.30
2012,07,05,10,30,14.30
2012,07,05,10,31,14.30
2012,07,05,10,32,14.40
2012,07,05,10,33,14.40
2012,07,05,10,34,14.40
2012,07,05,10,35,14.40
2012,07,05,10,36,14.40
2012,07,05,10,37,14.50
2012,07,05,10,38,14.50
2012,07,05,10,39,14.60
2012,07,05,10,40,14.60
2012,07,05,10,41,14.70
2012,07,05,10,42,14.70
2012,07,05,10,43,14.70
2012,07,05,10,44,14.80
2012,07,05,10,45,14.80
2012,07,05,10,46,14.90
2012,07,05,10,47,14.90
2012,07,05,10,48,14.90
2012,07,05,10,49,15.00
2012,07,05,10,50,15.00
2012,07,05,10,51,15.10
2012,07,05,10,52,15.10
2012,07,05,10,53,15.10
2012,07,05,10,54,15.20
2012,07,05,10,55,15.20
2012,07,05,10,56,15.20
2012,07,05,10,57,15.20
2012,07,05,10,58,15.30
2012,07,05,10,59,15.30
2012,07,05,11,00,15.40
2012,07,05,11,01,15.50
2012,07,05,11,02,15.50
2012,07,05,11,03,15.60
2012,07,05,11,04,15.60
2012,07,05,11,05,15.70
2012,07,05,11,06,15.70
2012,07,05,11,07,15.70
2012,07,05,11,08,15.60
2012,07,05,11,09,15.60
2012,07,05,11,10,15.60
2012,07,05,11,11,15.50
2012,07,05,11,12,15.50
2012,07,05,11,13,15.50
2012,07,05,11,14,15.50
2012,07,05,11,15,15.50
2012,07,05,11,16,15.50
2012,07,05,11,17,15.50
2012,07,05,11,18,15.50
2012,07,05,11,19,15.40
2012,07,05,11,20,15.40
2012,07,05,11,21,15.40
2012,07,05,11,22,15.40
2012,07,05,11,23,15.50
2012,07,05,11,24,15.50
2012,07,05,11,25,15.50
2012,07,05,11,26,15.50
2012,07,05,11,27,15.50
2012,07,05,11,28,15.50
2012,07,05,11,29,15.60
2012,07,05,11,30,15.60
2012,07,05,11,31,15.60
2012,07,05,11,32,15.60
2012,07,05,11,33,15.60
2012,07,05,11,34,15.60
2012,07,05,11,35,15.60
2012,07,05,11,36,15.60
2012,07,05,11,37,15.60
2012,07,05,11,38,15.60
2012,07,05,11,39,15.50
2012,07,05,11,40,15.50
2012,07,05,11,41,15.50
2012,07,05,11,42,15.40
2012,07,05,11,43,15.40
2012,07,05,11,44,15.40
2012,07,05,11,45,15.40
2012,07,05,11,46,15.40
2012,07,05,11,47,15.40
2012,07,05,11,48,15.40
2012,07,05,11,49,15.40
2012,07,05,11,50,15.50
2012,07,05,11,51,15.50
2012,07,05,11,52,15.50
2012,07,05,11,53,15.50
2012,07,05,11,54,15.50
2012,07,05,11,55,15.50
2012,07,05,11,56,15.60
2012,07,05,11,57,15.60
2012,07,05,11,58,15.60
2012,07,05,11,59,15.60
2012,07,05,12,00,15.60
2012,07,05,12,01,15.60
2012,07,05,12,02,15.60
2012,07,05,12,03,15.60
2012,07,05,12,04,15.60
2012,07,05,12,05,15.70
2012,07,05,12,06,15.70
2012,07,05,12,07,15.70
2012,07,05,12,08,15.70
2012,07,05,12,09,15.70
2012,07,05,12,10,15.70
2012,07,05,12,11,15.80
2012,07,05,12,12,15.70
2012,07,05,12,13,15.80
2012,07,05,12,14,15.80
2012,07,05,12,15,15.80
2012,07,05,12,16,15.80
2012,07,05,12,17,15.80
2012,07,05,12,18,15.80
2012,07,05,12,19,15.80
2012,07,05,12,20,15.80
2012,07,05,12,21,15.90
2012,07,05,12,22,15.90
2012,07,05,12,23,15.90
2012,07,05,12,24,16.00
2012,07,05,12,25,16.00
2012,07,05,12,26,16.10
2012,07,05,12,27,16.10
2012,07,05,12,28,16.10
2012,07,05,12,29,16.10
2012,07,05,12,30,16.10
2012,07,05,12,31,16.10
2012,07,05,12,32,16.10
2012,07,05,12,33,16.10
2012,07,05,12,34,16.10
2012,07,05,12,35,16.10
2012,07,05,12,36,16.10
2012,07,05,12,37,16.10
2012,07,05,12,38,16.10
2012,07,05,12,39,16.10
2012,07,05,12,40,16.10
2012,07,05,12,41,16.10
2012,07,05,12,42,16.10
2012,07,05,12,43,16.10
2012,07,05,12,44,16.10
2012,07,05,12,45,16.10
2012,07,05,12,46,16.10
2012,07,05,12,47,16.10
2012,07,05,12,48,16.10
2012,07,05,12,49,16.10
2012,07,05,12,50,16.10
2012,07,05,12,51,16.10
2012,07,05,12,52,16.10
2012,07,05,12,53,16.20
2012,07,05,12,54,16.20
2012,07,05,12,55,16.20
2012,07,05,12,56,16.20
2012,07,05,12,57,16.30
2012,07,05,12,58,16.30
2012,07,05,12,59,16.30
2012,07,05,13,00,16.30
2012,07,05,13,01,16.30
2012,07,05,13,02,16.30
2012,07,05,13,03,16.30
2012,07,05,13,04,16.30
2012,07,05,13,05,16.40
2012,07,05,13,06,16.40
2012,07,05,13,07,16.40
2012,07,05,13,08,16.40
2012,07,05,13,09,16.40
2012,07,05,13,10,16.40
2012,07,05,13,11,16.40
2012,07,05,13,12,16.40
2012,07,05,13,13,16.40
2012,07,05,13,14,16.40
2012,07,05,13,15,16.40
2012,07,05,13,16,16.40
2012,07,05,13,17,16.40
2012,07,05,13,18,16.40
2012,07,05,13,19,16.40
2012,07,05,13,20,16.40
2012,07,05,13,21,16.50
2012,07,05,13,22,16.50
2012,07,05,13,23,16.50
2012,07,05,13,24,16.60
2012,07,05,13,25,16.60
2012,07,05,13,26,16.60
2012,07,05,13,27,16.60
2012,07,05,13,28,16.60
2012,07,05,13,29,16.60
2012,07,05,13,30,16.60
2012,07,05,13,31,16.60
2012,07,05,13,32,16.60
2012,07,05,13,33,16.70
2012,07,05,13,34,16.70
2012,07,05,13,35,16.70
2012,07,05,13,36,16.70
2012,07,05,13,37,16.70
2012,07,05,13,38,16.70
2012,07,05,13,39,16.80
2012,07,05,13,40,16.80
2012,07,05,13,41,16.80
2012,07,05,13,42,16.90
2012,07,05,13,43,16.90
2012,07,05,13,44,16.90
2012,07,05,13,45,16.90
2012,07,05,13,46,16.90
2012,07,05,13,47,16.90
2012,07,05,13,48,16.90
2012,07,05,13,49,16.90
2012,07,05,13,50,16.90
2012,07,05,13,51,17.00
2012,07,05,13,52,17.00
2012,07,05,13,53,17.10
2012,07,05,13,54,17.10
2012,07,05,13,55,17.10
2012,07,05,13,56,17.10
2012,07,05,13,57,17.20
2012,07,05,13,58,17.20
2012,07,05,13,59,17.20
2012,07,05,14,00,17.20
2012,07,05,14,01,17.20
2012,07,05,14,02,17.20
2012,07,05,14,03,17.10
2012,07,05,14,04,17.00
2012,07,05,14,05,16.90
2012,07,05,14,06,16.90
2012,07,05,14,07,16.80
2012,07,05,14,08,16.80
2012,07,05,14,09,16.90
2012,07,05,14,10,16.90
2012,07,05,14,11,16.90
2012,07,05,14,12,16.90
2012,07,05,14,13,16.90
2012,07,05,14,14,16.90
2012,07,05,14,15,16.90
2012,07,05,14,16,16.90
2012,07,05,14,17,16.90
2012,07,05,14,18,16.90
2012,07,05,14,19,16.90
2012,07,05,14,20,16.90
2012,07,05,14,21,16.90
2012,07,05,14,22,16.90
2012,07,05,14,23,16.90
2012,07,05,14,24,16.90
2012,07,05,14,25,16.90
2012,07,05,14,26,16.80
2012,07,05,14,27,16.70
2012,07,05,14,28,16.70
2012,07,05,14,29,16.70
2012,07,05,14,30,16.70
2012,07,05,14,31,16.70
2012,07,05,14,32,16.70
2012,07,05,14,33,16.70
2012,07,05,14,34,16.80
2012,07,05,14,35,16.80
2012,07,05,14,36,16.80
2012,07,05,14,37,16.80
2012,07,05,14,38,16.90
2012,07,05,14,39,17.00
2012,07,05,14,40,17.10
2012,07,05,14,41,17.20
2012,07,05,14,42,17.20
2012,07,05,14,43,17.30
2012,07,05,14,44,17.30
2012,07,05,14,45,17.40
2012,07,05,14,46,17.40
2012,07,05,14,47,17.40
2012,07,05,14,48,17.40
2012,07,05,14,49,17.50
2012,07,05,14,50,17.60
2012,07,05,14,51,17.60
2012,07,05,14,52,17.60
2012,07,05,14,53,17.60
2012,07,05,14,54,17.60
2012,07,05,14,55,17.50
2012,07,05,14,56,17.50
2012,07,05,14,57,17.40
2012,07,05,14,58,17.30
2012,07,05,14,59,17.30
2012,07,05,15,00,17.20
2012,07,05,15,01,17.30
2012,07,05,15,02,17.30
2012,07,05,15,03,17.40
2012,07,05,15,04,17.40
2012,07,05,15,05,17.50
2012,07,05,15,06,17.50
2012,07,05,15,07,17.60
2012,07,05,15,08,17.70
2012,07,05,15,09,17.70
2012,07,05,15,10,17.70
2012,07,05,15,11,17.70
2012,07,05,15,12,17.70
2012,07,05,15,13,17.70
2012,07,05,15,14,17.80
2012,07,05,15,15,17.80
2012,07,05,15,16,17.80
2012,07,05,15,17,17.90
2012,07,05,15,18,17.90
2012,07,05,15,19,18.00
2012,07,05,15,20,18.00
2012,07,05,15,21,18.10
2012,07,05,15,22,18.10
2012,07,05,15,23,18.20
2012,07,05,15,24,18.10
2012,07,05,15,25,18.10
2012,07,05,15,26,18.10
2012,07,05,15,27,18.00
2012,07,05,15,28,18.00
2012,07,05,15,29,17.90
2012,07,05,15,30,17.80
2012,07,05,15,31,17.70
2012,07,05,15,32,17.60
2012,07,05,15,33,17.60
2012,07,05,15,34,17.60
2012,07,05,15,35,17.50
2012,07,05,15,36,17.50
2012,07,05,15,37,17.50
2012,07,05,15,38,17.50
2012,07,05,15,39,17.50
2012,07,05,15,40,17.60
2012,07,05,15,41,17.70
2012,07,05,15,42,17.80
2012,07,05,15,43,17.90
2012,07,05,15,44,18.10
2012,07,05,15,45,18.20
2012,07,05,15,46,18.30
2012,07,05,15,47,18.30
2012,07,05,15,48,18.40
2012,07,05,15,49,18.50
2012,07,05,15,50,18.50
2012,07,05,15,51,18.60
2012,07,05,15,52,18.60
2012,07,05,15,53,18.60
2012,07,05,15,54,18.60
2012,07,05,15,55,18.60
2012,07,05,15,56,18.60
2012,07,05,15,57,18.70
2012,07,05,15,58,18.70
2012,07,05,15,59,18.80
2012,07,05,16,00,18.80
2012,07,05,16,01,18.80
2012,07,05,16,02,18.90
2012,07,05,16,03,19.00
2012,07,05,16,04,19.00
2012,07,05,16,05,19.10
2012,07,05,16,06,19.20
2012,07,05,16,07,19.30
2012,07,05,16,08,19.40
2012,07,05,16,09,19.50
2012,07,05,16,10,19.50
2012,07,05,16,11,19.60
2012,07,05,16,12,19.60
2012,07,05,16,13,19.70
2012,07,05,16,14,19.70
2012,07,05,16,15,19.80
2012,07,05,16,16,19.80
2012,07,05,16,17,19.80
2012,07,05,16,18,19.80
2012,07,05,16,19,19.80
2012,07,05,16,20,19.80
2012,07,05,16,21,19.90
2012,07,05,16,22,20.00
2012,07,05,16,23,20.00
2012,07,05,16,24,20.10
2012,07,05,16,25,20.20
2012,07,05,16,26,20.30
2012,07,05,16,27,20.30
2012,07,05,16,28,20.30
2012,07,05,16,29,20.30
2012,07,05,16,30,20.30
2012,07,05,16,31,20.30
2012,07,05,16,32,20.30
2012,07,05,16,33,20.30
2012,07,05,16,34,20.20
2012,07,05,16,35,20.20
2012,07,05,16,36,20.20
2012,07,05,16,37,20.20
2012,07,05,16,38,20.20
2012,07,05,16,39,20.20
2012,07,05,16,40,20.20
2012,07,05,16,41,20.20
2012,07,05,16,42,20.30
2012,07,05,16,43,20.20
2012,07,05,16,44,20.30
2012,07,05,16,45,20.20
2012,07,05,16,46,20.20
2012,07,05,16,47,20.20
2012,07,05,16,48,20.10
2012,07,05,16,49,20.00
2012,07,05,16,50,19.90
2012,07,05,16,51,19.80
2012,07,05,16,52,19.80
2012,07,05,16,53,19.80
2012,07,05,16,54,19.80
2012,07,05,16,55,19.80
2012,07,05,16,56,19.80
2012,07,05,16,57,19.80
2012,07,05,16,58,19.80
2012,07,05,16,59,19.80
2012,07,05,17,00,19.70
2012,07,05,17,01,19.70
2012,07,05,17,02,19.70
2012,07,05,17,03,19.60
2012,07,05,17,04,19.60
2012,07,05,17,05,19.60
2012,07,05,17,06,19.70
2012,07,05,17,07,19.70
2012,07,05,17,08,19.70
2012,07,05,17,09,19.70
2012,07,05,17,10,19.70
2012,07,05,17,11,19.60
2012,07,05,17,12,19.50
2012,07,05,17,13,19.50
2012,07,05,17,14,19.40
2012,07,05,17,15,19.30
2012,07,05,17,16,19.30
2012,07,05,17,17,19.30
2012,07,05,17,18,19.40
2012,07,05,17,19,19.40
2012,07,05,17,20,19.50
2012,07,05,17,21,19.60
2012,07,05,17,22,19.60
2012,07,05,17,23,19.60
2012,07,05,17,24,19.70
2012,07,05,17,25,19.60
2012,07,05,17,26,19.60
2012,07,05,17,27,19.50
2012,07,05,17,28,19.40
2012,07,05,17,29,19.30
2012,07,05,17,30,19.30